This demonstration page uses our WeatherBlox Daily Observations layout. Learn more.

Left ArrowRight Arrow

34.02893, -84.19858

Hourly Observations for May 11, 2015

Temp ( °F °C ) Dew Point ( °F °C ) Humidity (%) Winds ( mph kmh ) Pressure ( in mb ) Visibility ( mi km ) Precip ( " mm )
12:53 am 00:53 Hazy 70 21.1 65 18.3 84 84 Calm 30.06 1018 6 10 0.00 0.00
1:53 am 01:53 Clear with Mist and Fog 69 20.6 65 18.3 87 87 Calm 30.06 1018 6 10 0.00 0.00
2:53 am 02:53 Clear with Mist and Fog 68 20 65 18.3 90 90 undefined N/A 30.04 1017 6 10 0.00 0.00
3:53 am 03:53 Clear with Mist and Fog 67 19.4 64 17.8 91 91 Calm 30.05 1018 6 10 0.00 0.00
4:53 am 04:53 Clear with Mist and Fog 66 18.9 64 17.8 93 93 Calm 30.04 1017 5 8 0.00 0.00
5:53 am 05:53 Clear with Mist and Fog 66 18.9 64 17.8 93 93 Calm 30.05 1018 5 8 0.00 0.00
6:53 am 06:53 Sunny with Mist and Fog 65 18.3 64 17.8 97 97 Calm 30.06 1018 4 6 0.00 0.00
7:53 am 07:53 Sunny with Mist and Fog 70 21.1 66 18.9 87 87 Calm 30.08 1019 4 6 0.00 0.00
8:53 am 08:53 Hazy 76 24.4 65 18.3 69 69 SSE 5 7 30.09 1019 6 10 0.00 0.00
9:53 am 09:53 Sunny 82 27.8 65 18.3 56 56 S 7 11 30.08 1019 7 11 0.00 0.00
10:53 am 10:53 Sunny 86 30 63 17.2 46 46 S 10 17 30.08 1019 8 13 0.00 0.00
11:53 am 11:53 Mostly Sunny 87 30.6 62 16.7 43 43 SW 9 15 30.08 1019 8 13 0.00 0.00
12:53 pm 12:53 Mostly Cloudy 89 31.7 62 16.7 41 41 SW 13 20 30.07 1018 8 13 0.00 0.00
1:53 pm 13:53 Mostly Sunny 90 32.2 62 16.7 39 39 SSW 12 19 30.06 1018 7 11 0.00 0.00
2:53 pm 14:53 Mostly Sunny 91 32.8 62 16.7 38 38 SW 8 13 30.04 1017 7 11 0.00 0.00
3:53 pm 15:53 Mostly Sunny 90 32.2 59 15 35 35 WSW 16 26 30.02 1017 8 13 0.00 0.00
4:53 pm 16:53 Mostly Sunny 89 31.7 61 16.1 39 39 SW 12 19 30.00 1016 7 11 0.00 0.00
5:53 pm 17:53 Hazy 88 31.1 63 17.2 43 43 SW 14 22 30.00 1016 6 10 0.00 0.00
6:53 pm 18:53 Hazy 87 30.6 62 16.7 43 43 SW 12 19 30.00 1016 6 10 0.00 0.00
7:53 pm 19:53 Sunny 84 28.9 61 16.1 46 46 SW 13 20 30.02 1017 7 11 0.00 0.00
8:53 pm 20:53 Clear 81 27.2 61 16.1 51 51 SW 9 15 30.04 1017 8 13 0.00 0.00
9:53 pm 21:53 Clear 77 25 61 16.1 58 58 SW 6 9 30.06 1018 8 13 0.00 0.00
10:53 pm 22:53 Clear 75 23.9 61 16.1 62 62 WSW 6 9 30.07 1018 8 13 0.00 0.00
11:53 pm 23:53 Clear 75 23.9 60 15.6 60 60 WSW 5 7 30.07 1018 8 13 0.00 0.00

Powered by AerisWeather